Location: Unspecified
(42.3650°N, 71.1030°W)
Time: 07:48:55
(UTC+00:00)

Vanguard 2 - Pass Details

Date: 02 July 2024
Orbit: 552 x 2913 km, 32.9° (Epoch: 13 July)

Event Time Altitude Azimuth Distance (km) Brightness Sun altitude
Exits shadow 05:54:50 21° 153° (SSE) 3,056 10.2 -22.9°
Maximum altitude 05:56:43 22° 138° (SE) 3,161 10.3 -22.8°
Drops below altitude 10° 06:05:25 10° 95° (E) 4,779 11.7 -22.3°
Sets 06:11:07 0° 83° (E) 6,184 12.5 -21.9°
